| time (UTC) | temp C | wind direction | speed KPH | gust KPH | rain 1hr cm | rain 24hr cm | rain mn cm | humidity % | barometer mb |
| 20260509235854 | 26 | 200 | 0.0 | 8.0 | 0.00 | 0.00 | 0.00 | 44 | 1010.5 |
| 20260509235644 | 26 | 335 | 1.6 | 8.0 | 0.00 | 0.00 | 0.00 | 45 | 1010.5 |
| 20260509235431 | 26 | 339 | 1.6 | 9.7 | 0.00 | 0.00 | 0.00 | 45 | 1010.6 |
| 20260509235033 | 26 | 282 | 1.6 | 9.7 | 0.00 | 0.00 | 0.00 | 45 | 1010.7 |
| 20260509234824 | 26 | 282 | 0.0 | 9.7 | 0.00 | 0.00 | 0.00 | 45 | 1010.7 |
| 20260509234620 | 26 | 302 | 0.0 | 9.7 | 0.00 | 0.00 | 0.00 | 47 | 1010.7 |
| 20260509234413 | 26 | 266 | 1.6 | 9.7 | 0.00 | 0.00 | 0.00 | 45 | 1010.6 |
| 20260509234209 | 26 | 247 | 1.6 | 9.7 | 0.00 | 0.00 | 0.00 | 47 | 1010.6 |
| 20260509234001 | 26 | 200 | 1.6 | 9.7 | 0.00 | 0.00 | 0.00 | 48 | 1010.6 |
| 20260509233756 | 26 | 200 | 1.6 | 9.7 | 0.00 | 0.00 | 0.00 | 46 | 1010.6 |
| 20260509233407 | 26 | 198 | 1.6 | 8.0 | 0.00 | 0.00 | 0.00 | 47 | 1010.6 |
| 20260509233154 | 26 | 199 | 1.6 | 8.0 | 0.00 | 0.00 | 0.00 | 46 | 1010.6 |
| 20260509232942 | 26 | 208 | 1.6 | 8.0 | 0.00 | 0.00 | 0.00 | 46 | 1010.6 |
| 20260509232738 | 26 | 225 | 1.6 | 6.4 | 0.00 | 0.00 | 0.00 | 46 | 1010.6 |
| 20260509232532 | 26 | 185 | 1.6 | 6.4 | 0.00 | 0.00 | 0.00 | 45 | 1010.6 |
| 20260509232328 | 26 | 202 | 1.6 | 6.4 | 0.00 | 0.00 | 0.00 | 46 | 1010.6 |
| 20260509232118 | 26 | 249 | 1.6 | 6.4 | 0.00 | 0.00 | 0.00 | 46 | 1010.6 |
| 20260509231912 | 26 | 249 | 1.6 | 6.4 | 0.00 | 0.00 | 0.00 | 45 | 1010.7 |
| 20260509231700 | 26 | 277 | 0.0 | 6.4 | 0.00 | 0.00 | 0.00 | 46 | 1010.7 |
| 20260509231458 | 26 | 286 | 0.0 | 6.4 | 0.00 | 0.00 | 0.00 | 45 | 1010.7 |
| 20260509231255 | 27 | 286 | 0.0 | 6.4 | 0.00 | 0.00 | 0.00 | 45 | 1010.7 |
| 20260509231053 | 27 | 250 | 0.0 | 8.0 | 0.00 | 0.00 | 0.00 | 46 | 1010.7 |
| 20260509230849 | 26 | 199 | 0.0 | 8.0 | 0.00 | 0.00 | 0.00 | 47 | 1010.7 |
| 20260509230646 | 26 | 199 | 0.0 | 8.0 | 0.00 | 0.00 | 0.00 | 47 | 1010.7 |
| 20260509230255 | 26 | 196 | 1.6 | 8.0 | 0.00 | 0.00 | 0.00 | 46 | 1010.7 |
| 20260509225906 | 26 | 165 | 1.6 | 8.0 | 0.00 | 0.00 | 0.00 | 45 | 1010.8 |
| 20260509225653 | 26 | 186 | 1.6 | 8.0 | 0.00 | 0.00 | 0.00 | 47 | 1010.7 |
| 20260509225446 | 26 | 316 | 1.6 | 8.0 | 0.00 | 0.00 | 0.00 | 47 | 1010.8 |
| 20260509225055 | 26 | 190 | 0.0 | 6.4 | 0.00 | 0.00 | 0.00 | 47 | 1010.8 |
| 20260509224701 | 26 | 271 | 0.0 | 9.7 | 0.00 | 0.00 | 0.00 | 46 | 1010.9 |
| 20260509224456 | 27 | 273 | 1.6 | 9.7 | 0.00 | 0.00 | 0.00 | 46 | 1010.9 |
| 20260509224102 | 26 | 271 | 1.6 | 9.7 | 0.00 | 0.00 | 0.00 | 46 | 1010.9 |
| 20260509223901 | 26 | 293 | 1.6 | 9.7 | 0.00 | 0.00 | 0.00 | 46 | 1010.9 |
| 20260509223513 | 27 | 200 | 0.0 | 6.4 | 0.00 | 0.00 | 0.00 | 46 | 1011.0 |
| 20260509223306 | 27 | 178 | 1.6 | 6.4 | 0.00 | 0.00 | 0.00 | 46 | 1011.0 |
| 20260509223102 | 27 | 173 | 1.6 | 8.0 | 0.00 | 0.00 | 0.00 | 46 | 1011.2 |
| 20260509222857 | 27 | 265 | 1.6 | 8.0 | 0.00 | 0.00 | 0.00 | 45 | 1011.1 |
| 20260509222646 | 27 | 216 | 1.6 | 8.0 | 0.00 | 0.00 | 0.00 | 47 | 1011.2 |
| 20260509222435 | 26 | 209 | 0.0 | 8.0 | 0.00 | 0.00 | 0.00 | 48 | 1011.2 |
| 20260509222039 | 26 | 243 | 0.0 | 12.9 | 0.00 | 0.00 | 0.00 | 46 | 1011.2 |
| 20260509221827 | 26 | 242 | 1.6 | 12.9 | 0.00 | 0.00 | 0.00 | 49 | 1011.2 |
| 20260509221248 | 26 | 155 | 1.6 | 12.9 | 0.00 | 0.00 | 0.00 | 46 | 1011.3 |
| 20260509221037 | 26 | 294 | 1.6 | 16.1 | 0.00 | 0.00 | 0.00 | 45 | 1011.4 |
| 20260509220829 | 26 | 201 | 1.6 | 16.1 | 0.00 | 0.00 | 0.00 | 48 | 1011.3 |
| 20260509220434 | 26 | 193 | 1.6 | 16.1 | 0.00 | 0.00 | 0.00 | 48 | 1011.3 |
| 20260509220232 | 26 | 236 | 3.2 | 16.1 | 0.00 | 0.00 | 0.00 | 47 | 1011.3 |
| 20260509220023 | 26 | 205 | 3.2 | 16.1 | 0.00 | 0.00 | 0.00 | 47 | 1011.3 |
| 20260509215820 | 26 | 178 | 3.2 | 16.1 | 0.00 | 0.00 | 0.00 | 46 | 1011.3 |
| 20260509215608 | 26 | 198 | 3.2 | 16.1 | 0.00 | 0.00 | 0.00 | 45 | 1011.3 |
| 20260509215358 | 26 | 163 | 1.6 | 16.1 | 0.00 | 0.00 | 0.00 | 45 | 1011.3 |
| 20260509215155 | 26 | 205 | 1.6 | 11.3 | 0.00 | 0.00 | 0.00 | 47 | 1011.3 |
| 20260509214803 | 27 | 210 | 1.6 | 11.3 | 0.00 | 0.00 | 0.00 | 45 | 1011.4 |
| 20260509214557 | 26 | 197 | 1.6 | 11.3 | 0.00 | 0.00 | 0.00 | 46 | 1011.4 |
| 20260509214347 | 26 | 197 | 1.6 | 11.3 | 0.00 | 0.00 | 0.00 | 46 | 1011.4 |
| 20260509213952 | 26 | 217 | 3.2 | 11.3 | 0.00 | 0.00 | 0.00 | 47 | 1011.5 |
| 20260509213747 | 26 | 188 | 1.6 | 9.7 | 0.00 | 0.00 | 0.00 | 46 | 1011.5 |
| 20260509213539 | 26 | 192 | 3.2 | 9.7 | 0.00 | 0.00 | 0.00 | 46 | 1011.6 |
| 20260509213336 | 26 | 215 | 3.2 | 9.7 | 0.00 | 0.00 | 0.00 | 47 | 1011.6 |
| 20260509213132 | 26 | 226 | 1.6 | 9.7 | 0.00 | 0.00 | 0.00 | 46 | 1011.6 |
| 20260509212928 | 26 | 235 | 1.6 | 8.0 | 0.00 | 0.00 | 0.00 | 47 | 1011.6 |
| 20260509212716 | 26 | 328 | 1.6 | 8.0 | 0.00 | 0.00 | 0.00 | 44 | 1011.5 |
| 20260509212506 | 26 | 259 | 1.6 | 8.0 | 0.00 | 0.00 | 0.00 | 47 | 1011.7 |
| 20260509212259 | 26 | 271 | 1.6 | 8.0 | 0.00 | 0.00 | 0.00 | 47 | 1011.7 |
| 20260509212051 | 26 | 271 | 1.6 | 8.0 | 0.00 | 0.00 | 0.00 | 46 | 1011.7 |
| 20260509211847 | 26 | 271 | 1.6 | 8.0 | 0.00 | 0.00 | 0.00 | 46 | 1011.7 |
| 20260509211640 | 26 | 271 | 1.6 | 8.0 | 0.00 | 0.00 | 0.00 | 46 | 1011.7 |
| 20260509211428 | 26 | 221 | 0.0 | 8.0 | 0.00 | 0.00 | 0.00 | 46 | 1011.8 |
| 20260509211222 | 26 | 199 | 0.0 | 8.0 | 0.00 | 0.00 | 0.00 | 48 | 1011.7 |
| 20260509211021 | 26 | 196 | 0.0 | 8.0 | 0.00 | 0.00 | 0.00 | 48 | 1011.7 |
| 20260509210808 | 26 | 188 | 0.0 | 8.0 | 0.00 | 0.00 | 0.00 | 46 | 1011.7 |
| 20260509210558 | 26 | 217 | 0.0 | 8.0 | 0.00 | 0.00 | 0.00 | 48 | 1011.8 |
| 20260509210345 | 26 | 271 | 1.6 | 1.6 | 0.00 | 0.00 | 0.00 | 50 | 1011.8 |
| 20260509210142 | 25 | 289 | 1.6 | 9.7 | 0.00 | 0.00 | 0.00 | 48 | 1011.8 |
| 20260509205748 | 25 | 282 | 1.6 | 9.7 | 0.00 | 0.00 | 0.00 | 47 | 1011.8 |
| 20260509205541 | 25 | 281 | 1.6 | 17.7 | 0.00 | 0.00 | 0.00 | 46 | 1011.8 |
| 20260509205330 | 26 | 196 | 1.6 | 17.7 | 0.00 | 0.00 | 0.00 | 46 | 1011.8 |
| 20260509204941 | 26 | 286 | 1.6 | 17.7 | 0.00 | 0.00 | 0.00 | 46 | 1011.8 |
| 20260509204735 | 26 | 282 | 3.2 | 17.7 | 0.00 | 0.00 | 0.00 | 46 | 1011.8 |
| 20260509204525 | 26 | 237 | 3.2 | 17.7 | 0.00 | 0.00 | 0.00 | 50 | 1011.9 |
| 20260509204318 | 25 | 220 | 3.2 | 17.7 | 0.00 | 0.00 | 0.00 | 46 | 1011.8 |
| 20260509204112 | 25 | 213 | 3.2 | 17.7 | 0.00 | 0.00 | 0.00 | 49 | 1011.8 |
| 20260509203908 | 25 | 202 | 1.6 | 17.7 | 0.00 | 0.00 | 0.00 | 48 | 1011.8 |
| 20260509203706 | 26 | 161 | 1.6 | 12.9 | 0.00 | 0.00 | 0.00 | 48 | 1011.8 |
| 20260509203502 | 26 | 167 | 1.6 | 12.9 | 0.00 | 0.00 | 0.00 | 49 | 1011.8 |
| 20260509203259 | 26 | 278 | 1.6 | 12.9 | 0.00 | 0.00 | 0.00 | 46 | 1011.9 |
| 20260509203053 | 26 | 271 | 1.6 | 12.9 | 0.00 | 0.00 | 0.00 | 47 | 1011.8 |
| 20260509202842 | 26 | 273 | 1.6 | 12.9 | 0.00 | 0.00 | 0.00 | 45 | 1011.9 |
| 20260509202630 | 26 | 217 | 1.6 | 12.9 | 0.00 | 0.00 | 0.00 | 48 | 1011.9 |
| 20260509202419 | 26 | 218 | 1.6 | 12.9 | 0.00 | 0.00 | 0.00 | 47 | 1011.8 |
| 20260509202208 | 26 | 298 | 1.6 | 12.9 | 0.00 | 0.00 | 0.00 | 47 | 1011.8 |
| 20260509202006 | 25 | 292 | 1.6 | 8.0 | 0.00 | 0.00 | 0.00 | 48 | 1011.8 |
| 20260509201755 | 25 | 302 | 1.6 | 8.0 | 0.00 | 0.00 | 0.00 | 45 | 1011.9 |
| 20260509201550 | 25 | 266 | 1.6 | 6.4 | 0.00 | 0.00 | 0.00 | 47 | 1011.9 |
| 20260509201340 | 25 | 254 | 1.6 | 12.9 | 0.00 | 0.00 | 0.00 | 47 | 1011.9 |
| 20260509201132 | 25 | 161 | 1.6 | 12.9 | 0.00 | 0.00 | 0.00 | 47 | 1011.8 |
| 20260509200921 | 26 | 188 | 1.6 | 12.9 | 0.00 | 0.00 | 0.00 | 47 | 1011.8 |
| 20260509200711 | 26 | 234 | 1.6 | 12.9 | 0.00 | 0.00 | 0.00 | 46 | 1011.9 |
| 20260509200501 | 25 | 234 | 3.2 | 12.9 | 0.00 | 0.00 | 0.00 | 48 | 1011.9 |
| 20260509200252 | 25 | 232 | 3.2 | 12.9 | 0.00 | 0.00 | 0.00 | 47 | 1011.9 |
| 20260509200040 | 25 | 229 | 3.2 | 12.9 | 0.00 | 0.00 | 0.00 | 47 | 1011.9 |
| 20260509195647 | 25 | 267 | 1.6 | 12.9 | 0.00 | 0.00 | 0.00 | 46 | 1012.0 |
| 20260509195443 | 25 | 289 | 0.0 | 14.5 | 0.00 | 0.00 | 0.00 | 47 | 1011.9 |
| 20260509195242 | 25 | 269 | 0.0 | 14.5 | 0.00 | 0.00 | 0.00 | 48 | 1011.9 |
| 20260509195036 | 25 | 269 | 0.0 | 14.5 | 0.00 | 0.00 | 0.00 | 46 | 1012.0 |
| 20260509194829 | 25 | 269 | 0.0 | 14.5 | 0.00 | 0.00 | 0.00 | 47 | 1012.0 |
| 20260509194627 | 25 | 269 | 0.0 | 14.5 | 0.00 | 0.00 | 0.00 | 46 | 1012.1 |
| 20260509194233 | 25 | 266 | 1.6 | 11.3 | 0.00 | 0.00 | 0.00 | 48 | 1012.1 |
| 20260509194031 | 25 | 260 | 0.0 | 11.3 | 0.00 | 0.00 | 0.00 | 48 | 1012.1 |
| 20260509193820 | 25 | 260 | 0.0 | 11.3 | 0.00 | 0.00 | 0.00 | 48 | 1012.1 |
| 20260509193422 | 25 | 325 | 0.0 | 14.5 | 0.00 | 0.00 | 0.00 | 48 | 1012.1 |
| 20260509193032 | 25 | 242 | 0.0 | 14.5 | 0.00 | 0.00 | 0.00 | 46 | 1012.1 |
| 20260509192821 | 25 | 242 | 1.6 | 14.5 | 0.00 | 0.00 | 0.00 | 45 | 1012.2 |
| 20260509192613 | 25 | 215 | 1.6 | 8.0 | 0.00 | 0.00 | 0.00 | 43 | 1012.2 |
| 20260509192403 | 25 | 215 | 1.6 | 8.0 | 0.00 | 0.00 | 0.00 | 44 | 1012.3 |
| 20260509192154 | 25 | 222 | 3.2 | 8.0 | 0.00 | 0.00 | 0.00 | 44 | 1012.2 |
| 20260509191949 | 25 | 292 | 3.2 | 8.0 | 0.00 | 0.00 | 0.00 | 44 | 1012.2 |
| 20260509191739 | 25 | 215 | 1.6 | 8.0 | 0.00 | 0.00 | 0.00 | 43 | 1012.2 |
| 20260509191528 | 25 | 213 | 1.6 | 8.0 | 0.00 | 0.00 | 0.00 | 45 | 1012.3 |
| 20260509191322 | 25 | 219 | 1.6 | 8.0 | 0.00 | 0.00 | 0.00 | 45 | 1012.2 |
| 20260509191114 | 25 | 315 | 1.6 | 8.0 | 0.00 | 0.00 | 0.00 | 44 | 1012.2 |
| 20260509190726 | 25 | 213 | 1.6 | 11.3 | 0.00 | 0.00 | 0.00 | 45 | 1012.2 |
| 20260509190516 | 25 | 213 | 1.6 | 11.3 | 0.00 | 0.00 | 0.00 | 45 | 1012.2 |
| 20260509190307 | 25 | 213 | 1.6 | 11.3 | 0.00 | 0.00 | 0.00 | 46 | 1012.4 |
| 20260509190057 | 25 | 212 | 1.6 | 11.3 | 0.00 | 0.00 | 0.00 | 44 | 1012.4 |
| 20260509185852 | 24 | 213 | 1.6 | 11.3 | 0.00 | 0.00 | 0.00 | 45 | 1012.4 |
| 20260509185643 | 24 | 200 | 1.6 | 11.3 | 0.00 | 0.00 | 0.00 | 44 | 1012.3 |
| 20260509185430 | 25 | 213 | 1.6 | 11.3 | 0.00 | 0.00 | 0.00 | 45 | 1012.4 |
| 20260509185223 | 25 | 231 | 3.2 | 11.3 | 0.00 | 0.00 | 0.00 | 44 | 1012.3 |
| 20260509185017 | 25 | 273 | 1.6 | 11.3 | 0.00 | 0.00 | 0.00 | 43 | 1012.4 |
| 20260509184810 | 25 | 288 | 1.6 | 11.3 | 0.00 | 0.00 | 0.00 | 43 | 1012.4 |
| 20260509184602 | 25 | 306 | 1.6 | 9.7 | 0.00 | 0.00 | 0.00 | 44 | 1012.4 |
| 20260509184350 | 25 | 279 | 0.0 | 9.7 | 0.00 | 0.00 | 0.00 | 44 | 1012.4 |
| 20260509184139 | 24 | 279 | 1.6 | 9.7 | 0.00 | 0.00 | 0.00 | 45 | 1012.4 |
| 20260509183936 | 24 | 279 | 1.6 | 9.7 | 0.00 | 0.00 | 0.00 | 45 | 1012.4 |
| 20260509183729 | 24 | 279 | 1.6 | 11.3 | 0.00 | 0.00 | 0.00 | 45 | 1012.4 |
| 20260509183524 | 24 | 261 | 0.0 | 11.3 | 0.00 | 0.00 | 0.00 | 45 | 1012.4 |
| 20260509183321 | 24 | 261 | 1.6 | 11.3 | 0.00 | 0.00 | 0.00 | 44 | 1012.4 |
| 20260509183118 | 24 | 295 | 1.6 | 11.3 | 0.00 | 0.00 | 0.00 | 44 | 1012.4 |
| 20260509182725 | 24 | 285 | 3.2 | 11.3 | 0.00 | 0.00 | 0.00 | 46 | 1012.4 |
| 20260509181958 | 23 | 213 | 1.6 | 11.3 | 0.00 | 0.00 | 0.00 | 48 | 1012.5 |
| 20260509181756 | 23 | 153 | 0.0 | 11.3 | 0.00 | 0.00 | 0.00 | 48 | 1012.6 |
| 20260509181549 | 23 | 207 | 0.0 | 8.0 | 0.00 | 0.00 | 0.00 | 47 | 1012.5 |
| 20260509181158 | 23 | 207 | 1.6 | 8.0 | 0.00 | 0.00 | 0.00 | 48 | 1012.6 |
| 20260509180948 | 23 | 212 | 0.0 | 9.7 | 0.00 | 0.00 | 0.00 | 50 | 1012.6 |
| 20260509180746 | 22 | 161 | 1.6 | 9.7 | 0.00 | 0.00 | 0.00 | 50 | 1012.6 |
| 20260509180538 | 22 | 160 | 1.6 | 9.7 | 0.00 | 0.00 | 0.00 | 48 | 1012.6 |
| 20260509180330 | 22 | 258 | 1.6 | 9.7 | 0.00 | 0.00 | 0.00 | 50 | 1012.6 |
| 20260509180121 | 22 | 276 | 1.6 | 9.7 | 0.00 | 0.00 | 0.00 | 50 | 1012.6 |
| 20260509175909 | 22 | 276 | 1.6 | 9.7 | 0.00 | 0.00 | 0.00 | 50 | 1012.7 |
| 20260509175657 | 22 | 216 | 1.6 | 9.7 | 0.00 | 0.00 | 0.00 | 53 | 1012.7 |
| 20260509175448 | 21 | 293 | 0.0 | 9.7 | 0.00 | 0.00 | 0.00 | 52 | 1012.7 |
| 20260509175241 | 21 | 293 | 0.0 | 9.7 | 0.00 | 0.00 | 0.00 | 52 | 1012.7 |
| 20260509175032 | 21 | 229 | 0.0 | 6.4 | 0.00 | 0.00 | 0.00 | 54 | 1012.7 |
| 20260509174821 | 21 | 225 | 1.6 | 4.8 | 0.00 | 0.00 | 0.00 | 54 | 1012.7 |
| 20260509174430 | 21 | 222 | 1.6 | 6.4 | 0.00 | 0.00 | 0.00 | 54 | 1012.7 |
| 20260509174223 | 21 | 220 | 1.6 | 6.4 | 0.00 | 0.00 | 0.00 | 55 | 1012.7 |
| 20260509174017 | 20 | 273 | 1.6 | 4.8 | 0.00 | 0.00 | 0.00 | 55 | 1012.7 |
| 20260509173813 | 20 | 271 | 1.6 | 3.2 | 0.00 | 0.00 | 0.00 | 54 | 1012.7 |
| 20260509173606 | 20 | 271 | 1.6 | 6.4 | 0.00 | 0.00 | 0.00 | 56 | 1012.7 |
| 20260509173354 | 20 | 279 | 0.0 | 6.4 | 0.00 | 0.00 | 0.00 | 55 | 1012.6 |
| 20260509173151 | 20 | 271 | 1.6 | 6.4 | 0.00 | 0.00 | 0.00 | 55 | 1012.6 |
| 20260509172943 | 20 | 221 | 1.6 | 6.4 | 0.00 | 0.00 | 0.00 | 58 | 1012.6 |
| 20260509172734 | 20 | 189 | 1.6 | 6.4 | 0.00 | 0.00 | 0.00 | 58 | 1012.6 |
| 20260509172524 | 20 | 189 | 1.6 | 6.4 | 0.00 | 0.00 | 0.00 | 58 | 1012.6 |
| 20260509172323 | 20 | 189 | 1.6 | 6.4 | 0.00 | 0.00 | 0.00 | 58 | 1012.6 |
| 20260509172118 | 19 | 192 | 0.0 | 6.4 | 0.00 | 0.00 | 0.00 | 59 | 1012.6 |
| 20260509171915 | 19 | 173 | 0.0 | 4.8 | 0.00 | 0.00 | 0.00 | 60 | 1012.6 |
| 20260509171710 | 19 | 172 | 0.0 | 3.2 | 0.00 | 0.00 | 0.00 | 62 | 1012.6 |
| 20260509171506 | 18 | 161 | 0.0 | 3.2 | 0.00 | 0.00 | 0.00 | 64 | 1012.7 |
| 20260509171118 | 18 | 161 | 0.0 | 6.4 | 0.00 | 0.00 | 0.00 | 64 | 1012.6 |
| 20260509170914 | 18 | 160 | 0.0 | 6.4 | 0.00 | 0.00 | 0.00 | 65 | 1012.6 |
| 20260509170525 | 17 | 196 | 0.0 | 6.4 | 0.00 | 0.00 | 0.00 | 69 | 1012.6 |
| 20260509170313 | 17 | 196 | 0.0 | 6.4 | 0.00 | 0.00 | 0.00 | 71 | 1012.7 |
| 20260509170105 | 17 | 197 | 0.0 | 6.4 | 0.00 | 0.00 | 0.00 | 75 | 1012.6 |
| 20260509165853 | 16 | 196 | 0.0 | 6.4 | 0.00 | 0.00 | 0.00 | 77 | 1012.6 |
| 20260509165642 | 16 | 196 | 0.0 | 6.4 | 0.00 | 0.00 | 0.00 | 81 | 1012.6 |
| 20260509165434 | 16 | 250 | 0.0 | 6.4 | 0.00 | 0.00 | 0.00 | 83 | 1012.6 |
| 20260509165226 | 16 | 292 | 0.0 | 6.4 | 0.00 | 0.00 | 0.00 | 86 | 1012.6 |
| 20260509165015 | 16 | 292 | 0.0 | 6.4 | 0.00 | 0.00 | 0.00 | 86 | 1012.6 |
| 20260509164810 | 16 | 251 | 0.0 | 1.6 | 0.00 | 0.00 | 0.00 | 88 | 1012.6 |
| 20260509164606 | 16 | 252 | 0.0 | 0.0 | 0.00 | 0.00 | 0.00 | 88 | 1012.6 |
| 20260509164403 | 15 | 252 | 0.0 | 4.8 | 0.00 | 0.00 | 0.00 | 89 | 1012.6 |
| 20260509164151 | 15 | 252 | 0.0 | 4.8 | 0.00 | 0.00 | 0.00 | 89 | 1012.6 |
| 20260509163940 | 15 | 273 | 0.0 | 4.8 | 0.00 | 0.00 | 0.00 | 89 | 1012.7 |
| 20260509163734 | 15 | 275 | 0.0 | 0.0 | 0.00 | 0.00 | 0.00 | 90 | 1012.7 |
| 20260509163530 | 15 | 275 | 0.0 | 0.0 | 0.00 | 0.00 | 0.00 | 90 | 1012.7 |
| 20260509163143 | 15 | 275 | 0.0 | 0.0 | 0.00 | 0.00 | 0.00 | 90 | 1012.8 |
| 20260509162937 | 15 | 275 | 0.0 | 0.0 | 0.00 | 0.00 | 0.00 | 91 | 1012.7 |
| 20260509162732 | 15 | 275 | 0.0 | 0.0 | 0.00 | 0.00 | 0.00 | 91 | 1012.8 |
| 20260509162528 | 15 | 275 | 0.0 | 0.0 | 0.00 | 0.00 | 0.00 | 91 | 1012.7 |
| 20260509162326 | 15 | 275 | 0.0 | 0.0 | 0.00 | 0.00 | 0.00 | 91 | 1012.7 |
| 20260509162121 | 14 | 275 | 0.0 | 0.0 | 0.00 | 0.00 | 0.00 | 91 | 1012.7 |
| 20260509161915 | 14 | 275 | 0.0 | 0.0 | 0.00 | 0.00 | 0.00 | 91 | 1012.8 |
| 20260509161705 | 14 | 275 | 0.0 | 0.0 | 0.00 | 0.00 | 0.00 | 91 | 1012.8 |
| 20260509161500 | 14 | 275 | 0.0 | 0.0 | 0.00 | 0.00 | 0.00 | 91 | 1012.8 |
| 20260509161107 | 13 | 275 | 0.0 | 0.0 | 0.00 | 0.00 | 0.00 | 91 | 1012.7 |
| 20260509160858 | 13 | 275 | 0.0 | 0.0 | 0.00 | 0.00 | 0.00 | 91 | 1012.7 |
| 20260509160651 | 13 | 275 | 0.0 | 0.0 | 0.00 | 0.00 | 0.00 | 91 | 1012.7 |
| 20260509160441 | 13 | 275 | 0.0 | 0.0 | 0.00 | 0.00 | 0.00 | 91 | 1012.7 |
| 20260509160237 | 13 | 275 | 0.0 | 0.0 | 0.00 | 0.00 | 0.00 | 91 | 1012.7 |
| 20260509160030 | 13 | 275 | 0.0 | 0.0 | 0.00 | 0.00 | 0.00 | 91 | 1012.7 |
| 20260509155819 | 13 | 275 | 0.0 | 0.0 | 0.00 | 0.00 | 0.00 | 91 | 1012.7 |
| 20260509155424 | 12 | 275 | 0.0 | 0.0 | 0.00 | 0.00 | 0.00 | 90 | 1012.7 |
| 20260509155217 | 12 | 275 | 0.0 | 0.0 | 0.00 | 0.00 | 0.00 | 90 | 1012.8 |
| 20260509155008 | 12 | 275 | 0.0 | 0.0 | 0.00 | 0.00 | 0.00 | 90 | 1012.7 |
| 20260509154759 | 12 | 275 | 0.0 | 0.0 | 0.00 | 0.00 | 0.00 | 90 | 1012.8 |
| 20260509154552 | 12 | 275 | 0.0 | 0.0 | 0.00 | 0.00 | 0.00 | 90 | 1012.8 |
| 20260509154340 | 12 | 275 | 0.0 | 0.0 | 0.00 | 0.00 | 0.00 | 90 | 1012.9 |
| 20260509154129 | 12 | 275 | 0.0 | 0.0 | 0.00 | 0.00 | 0.00 | 90 | 1012.9 |
| 20260509153925 | 12 | 275 | 0.0 | 0.0 | 0.00 | 0.00 | 0.00 | 90 | 1012.9 |
| 20260509153713 | 12 | 275 | 0.0 | 0.0 | 0.00 | 0.00 | 0.00 | 90 | 1013.0 |
| 20260509153510 | 11 | 275 | 0.0 | 0.0 | 0.00 | 0.00 | 0.00 | 89 | 1012.9 |
| 20260509153118 | 11 | 275 | 0.0 | 0.0 | 0.00 | 0.00 | 0.00 | 89 | 1013.0 |
| 20260509152912 | 11 | 275 | 0.0 | 0.0 | 0.00 | 0.00 | 0.00 | 89 | 1013.0 |
| 20260509152525 | 11 | 275 | 0.0 | 0.0 | 0.00 | 0.00 | 0.00 | 89 | 1012.9 |
| 20260509152128 | 11 | 275 | 0.0 | 0.0 | 0.00 | 0.00 | 0.00 | 89 | 1012.9 |
| 20260509151919 | 11 | 275 | 0.0 | 0.0 | 0.00 | 0.00 | 0.00 | 88 | 1012.8 |
| 20260509151715 | 11 | 275 | 0.0 | 0.0 | 0.00 | 0.00 | 0.00 | 88 | 1012.8 |
| 20260509151503 | 10 | 275 | 0.0 | 0.0 | 0.00 | 0.00 | 0.00 | 88 | 1012.9 |
| 20260509151254 | 10 | 275 | 0.0 | 0.0 | 0.00 | 0.00 | 0.00 | 88 | 1012.9 |
| 20260509151045 | 10 | 275 | 0.0 | 0.0 | 0.00 | 0.00 | 0.00 | 88 | 1012.8 |
| 20260509150844 | 10 | 275 | 0.0 | 0.0 | 0.00 | 0.00 | 0.00 | 88 | 1012.8 |
| 20260509150633 | 10 | 275 | 0.0 | 0.0 | 0.00 | 0.00 | 0.00 | 88 | 1012.9 |
| 20260509150425 | 10 | 275 | 0.0 | 0.0 | 0.00 | 0.00 | 0.00 | 88 | 1013.0 |
| 20260509150218 | 10 | 275 | 0.0 | 0.0 | 0.00 | 0.00 | 0.00 | 88 | 1013.0 |
| 20260509150007 | 10 | 275 | 0.0 | 0.0 | 0.00 | 0.00 | 0.00 | 87 | 1013.0 |
| 20260509145616 | 10 | 275 | 0.0 | 0.0 | 0.00 | 0.00 | 0.00 | 87 | 1013.0 |
| 20260509145413 | 10 | 275 | 0.0 | 0.0 | 0.00 | 0.00 | 0.00 | 87 | 1013.0 |
| 20260509145207 | 10 | 275 | 0.0 | 0.0 | 0.00 | 0.00 | 0.00 | 87 | 1012.9 |
| 20260509144419 | 10 | 275 | 0.0 | 0.0 | 0.00 | 0.00 | 0.00 | 87 | 1012.8 |
| 20260509144216 | 10 | 275 | 0.0 | 0.0 | 0.00 | 0.00 | 0.00 | 87 | 1012.8 |
| 20260509144014 | 10 | 275 | 0.0 | 0.0 | 0.00 | 0.00 | 0.00 | 87 | 1012.9 |
| 20260509143803 | 10 | 275 | 0.0 | 0.0 | 0.00 | 0.00 | 0.00 | 87 | 1012.8 |
| 20260509143601 | 10 | 275 | 0.0 | 0.0 | 0.00 | 0.00 | 0.00 | 87 | 1012.9 |
| 20260509143210 | 10 | 275 | 0.0 | 0.0 | 0.00 | 0.00 | 0.00 | 87 | 1012.9 |
| 20260509143007 | 10 | 275 | 0.0 | 0.0 | 0.00 | 0.00 | 0.00 | 87 | 1012.9 |
| 20260509142801 | 10 | 275 | 0.0 | 0.0 | 0.00 | 0.00 | 0.00 | 87 | 1012.9 |
| 20260509142550 | 10 | 275 | 0.0 | 0.0 | 0.00 | 0.00 | 0.00 | 87 | 1012.9 |
| 20260509142347 | 10 | 275 | 0.0 | 0.0 | 0.00 | 0.00 | 0.00 | 87 | 1013.0 |
| 20260509142139 | 10 | 275 | 0.0 | 0.0 | 0.00 | 0.00 | 0.00 | 87 | 1013.0 |
| 20260509141935 | 10 | 275 | 0.0 | 0.0 | 0.00 | 0.00 | 0.00 | 87 | 1013.0 |
| 20260509141725 | 10 | 275 | 0.0 | 0.0 | 0.00 | 0.00 | 0.00 | 87 | 1013.1 |
| 20260509141521 | 10 | 275 | 0.0 | 0.0 | 0.00 | 0.00 | 0.00 | 87 | 1013.0 |
| 20260509141312 | 10 | 275 | 0.0 | 0.0 | 0.00 | 0.00 | 0.00 | 87 | 1013.0 |
| 20260509141100 | 10 | 275 | 0.0 | 0.0 | 0.00 | 0.00 | 0.00 | 87 | 1013.1 |
| 20260509140712 | 10 | 275 | 0.0 | 0.0 | 0.00 | 0.00 | 0.00 | 86 | 1013.1 |
| 20260509140459 | 10 | 275 | 0.0 | 0.0 | 0.00 | 0.00 | 0.00 | 86 | 1013.1 |
| 20260509140256 | 10 | 275 | 0.0 | 0.0 | 0.00 | 0.00 | 0.00 | 86 | 1013.1 |
| 20260509140051 | 10 | 275 | 0.0 | 0.0 | 0.00 | 0.00 | 0.00 | 86 | 1013.1 |
| 20260509135848 | 10 | 275 | 0.0 | 0.0 | 0.00 | 0.00 | 0.00 | 86 | 1013.1 |
| 20260509135309 | 10 | 275 | 0.0 | 0.0 | 0.00 | 0.00 | 0.00 | 86 | 1013.1 |
| 20260509135100 | 10 | 275 | 0.0 | 0.0 | 0.00 | 0.00 | 0.00 | 86 | 1013.1 |
| 20260509134849 | 9 | 275 | 0.0 | 0.0 | 0.00 | 0.00 | 0.00 | 86 | 1013.0 |
| 20260509134643 | 9 | 275 | 0.0 | 0.0 | 0.00 | 0.00 | 0.00 | 86 | 1013.0 |
| 20260509134439 | 9 | 275 | 0.0 | 0.0 | 0.00 | 0.00 | 0.00 | 86 | 1013.0 |
| 20260509134231 | 9 | 275 | 0.0 | 0.0 | 0.00 | 0.00 | 0.00 | 86 | 1013.0 |
| 20260509134022 | 10 | 275 | 0.0 | 0.0 | 0.00 | 0.00 | 0.00 | 86 | 1013.0 |
| 20260509133816 | 9 | 275 | 0.0 | 0.0 | 0.00 | 0.00 | 0.00 | 86 | 1013.0 |
| 20260509133607 | 9 | 275 | 0.0 | 0.0 | 0.00 | 0.00 | 0.00 | 86 | 1012.9 |
| 20260509133211 | 9 | 275 | 0.0 | 0.0 | 0.00 | 0.00 | 0.00 | 86 | 1012.9 |
| 20260509133006 | 10 | 275 | 0.0 | 0.0 | 0.00 | 0.00 | 0.00 | 86 | 1012.8 |
| 20260509132758 | 9 | 275 | 0.0 | 0.0 | 0.00 | 0.00 | 0.00 | 86 | 1012.8 |
| 20260509132546 | 10 | 275 | 0.0 | 0.0 | 0.00 | 0.00 | 0.00 | 86 | 1012.8 |
| 20260509132344 | 10 | 275 | 0.0 | 0.0 | 0.00 | 0.00 | 0.00 | 86 | 1012.8 |
| 20260509131737 | 10 | 275 | 0.0 | 0.0 | 0.00 | 0.00 | 0.00 | 86 | 1012.8 |
| 20260509131526 | 10 | 275 | 0.0 | 0.0 | 0.00 | 0.00 | 0.00 | 86 | 1012.8 |
| 20260509131317 | 10 | 275 | 0.0 | 0.0 | 0.00 | 0.00 | 0.00 | 85 | 1012.8 |
| 20260509131111 | 10 | 275 | 0.0 | 0.0 | 0.00 | 0.00 | 0.00 | 85 | 1012.7 |
| 20260509130721 | 10 | 275 | 0.0 | 0.0 | 0.00 | 0.00 | 0.00 | 85 | 1012.6 |
| 20260509130511 | 10 | 275 | 0.0 | 0.0 | 0.00 | 0.00 | 0.00 | 85 | 1012.6 |
| 20260509130307 | 10 | 275 | 0.0 | 0.0 | 0.00 | 0.00 | 0.00 | 85 | 1012.5 |
| 20260509125911 | 10 | 275 | 0.0 | 0.0 | 0.00 | 0.00 | 0.00 | 85 | 1012.5 |
| 20260509125706 | 10 | 275 | 0.0 | 0.0 | 0.00 | 0.00 | 0.00 | 85 | 1012.5 |
| 20260509125315 | 10 | 275 | 0.0 | 0.0 | 0.00 | 0.00 | 0.00 | 85 | 1012.5 |
| 20260509124743 | 10 | 275 | 0.0 | 0.0 | 0.00 | 0.00 | 0.00 | 85 | 1012.6 |
| 20260509124532 | 10 | 275 | 0.0 | 0.0 | 0.00 | 0.00 | 0.00 | 85 | 1012.5 |
| 20260509124329 | 10 | 275 | 0.0 | 0.0 | 0.00 | 0.00 | 0.00 | 85 | 1012.6 |
| 20260509124123 | 10 | 275 | 0.0 | 0.0 | 0.00 | 0.00 | 0.00 | 85 | 1012.6 |
| 20260509123915 | 10 | 275 | 0.0 | 0.0 | 0.00 | 0.00 | 0.00 | 85 | 1012.6 |
| 20260509123526 | 10 | 275 | 0.0 | 0.0 | 0.00 | 0.00 | 0.00 | 85 | 1012.6 |
| 20260509123319 | 10 | 275 | 0.0 | 0.0 | 0.00 | 0.00 | 0.00 | 85 | 1012.6 |
| 20260509123109 | 10 | 275 | 0.0 | 0.0 | 0.00 | 0.00 | 0.00 | 85 | 1012.5 |
| 20260509122713 | 10 | 275 | 0.0 | 0.0 | 0.00 | 0.00 | 0.00 | 85 | 1012.5 |
| 20260509122502 | 10 | 275 | 0.0 | 0.0 | 0.00 | 0.00 | 0.00 | 85 | 1012.5 |
| 20260509122256 | 10 | 275 | 0.0 | 0.0 | 0.00 | 0.00 | 0.00 | 85 | 1012.5 |
| 20260509121903 | 10 | 275 | 0.0 | 0.0 | 0.00 | 0.00 | 0.00 | 85 | 1012.5 |
| 20260509121701 | 10 | 275 | 0.0 | 0.0 | 0.00 | 0.00 | 0.00 | 85 | 1012.5 |
| 20260509121454 | 10 | 275 | 0.0 | 0.0 | 0.00 | 0.00 | 0.00 | 85 | 1012.5 |
| 20260509121241 | 10 | 275 | 0.0 | 0.0 | 0.00 | 0.00 | 0.00 | 85 | 1012.5 |
| 20260509121031 | 10 | 275 | 0.0 | 0.0 | 0.00 | 0.00 | 0.00 | 85 | 1012.5 |
| 20260509120819 | 10 | 275 | 0.0 | 0.0 | 0.00 | 0.00 | 0.00 | 85 | 1012.5 |
| 20260509120611 | 10 | 275 | 0.0 | 0.0 | 0.00 | 0.00 | 0.00 | 85 | 1012.6 |
| 20260509120401 | 10 | 275 | 0.0 | 0.0 | 0.00 | 0.00 | 0.00 | 85 | 1012.5 |
| 20260509120159 | 10 | 275 | 0.0 | 0.0 | 0.00 | 0.00 | 0.00 | 85 | 1012.5 |
| 20260509115951 | 10 | 275 | 0.0 | 0.0 | 0.00 | 0.00 | 0.00 | 85 | 1012.5 |
| 20260509115747 | 10 | 275 | 0.0 | 0.0 | 0.00 | 0.00 | 0.00 | 85 | 1012.5 |
| 20260509115545 | 10 | 275 | 0.0 | 0.0 | 0.00 | 0.00 | 0.00 | 85 | 1012.5 |
| 20260509115339 | 10 | 275 | 0.0 | 0.0 | 0.00 | 0.00 | 0.00 | 85 | 1012.5 |
| 20260509115137 | 10 | 275 | 0.0 | 0.0 | 0.00 | 0.00 | 0.00 | 85 | 1012.6 |
| 20260509114932 | 10 | 275 | 0.0 | 0.0 | 0.00 | 0.00 | 0.00 | 85 | 1012.6 |
| 20260509114723 | 10 | 275 | 0.0 | 0.0 | 0.00 | 0.00 | 0.00 | 85 | 1012.6 |
| 20260509114521 | 10 | 275 | 0.0 | 0.0 | 0.00 | 0.00 | 0.00 | 84 | 1012.6 |
| 20260509114310 | 10 | 275 | 0.0 | 0.0 | 0.00 | 0.00 | 0.00 | 84 | 1012.5 |
| 20260509114105 | 10 | 275 | 0.0 | 0.0 | 0.00 | 0.00 | 0.00 | 84 | 1012.6 |
| 20260509113904 | 10 | 275 | 0.0 | 0.0 | 0.00 | 0.00 | 0.00 | 84 | 1012.6 |
| 20260509113658 | 10 | 275 | 0.0 | 0.0 | 0.00 | 0.00 | 0.00 | 84 | 1012.6 |
| 20260509113456 | 10 | 275 | 0.0 | 0.0 | 0.00 | 0.00 | 0.00 | 84 | 1012.6 |
| 20260509113247 | 10 | 275 | 0.0 | 0.0 | 0.00 | 0.00 | 0.00 | 85 | 1012.6 |
| 20260509113036 | 10 | 275 | 0.0 | 0.0 | 0.00 | 0.00 | 0.00 | 85 | 1012.6 |
| 20260509112824 | 10 | 275 | 0.0 | 0.0 | 0.00 | 0.00 | 0.00 | 85 | 1012.7 |
| 20260509112436 | 10 | 275 | 0.0 | 0.0 | 0.00 | 0.00 | 0.00 | 84 | 1012.7 |
| 20260509112233 | 10 | 275 | 0.0 | 0.0 | 0.00 | 0.00 | 0.00 | 84 | 1012.6 |
| 20260509112031 | 10 | 275 | 0.0 | 0.0 | 0.00 | 0.00 | 0.00 | 84 | 1012.7 |
| 20260509111820 | 10 | 275 | 0.0 | 0.0 | 0.00 | 0.00 | 0.00 | 84 | 1012.7 |
| 20260509111613 | 10 | 275 | 0.0 | 0.0 | 0.00 | 0.00 | 0.00 | 84 | 1012.7 |
| 20260509111402 | 10 | 275 | 0.0 | 0.0 | 0.00 | 0.00 | 0.00 | 84 | 1012.8 |
| 20260509111158 | 10 | 275 | 0.0 | 0.0 | 0.00 | 0.00 | 0.00 | 84 | 1012.8 |
| 20260509110949 | 10 | 275 | 0.0 | 0.0 | 0.00 | 0.00 | 0.00 | 84 | 1012.8 |
| 20260509110600 | 10 | 275 | 0.0 | 0.0 | 0.00 | 0.00 | 0.00 | 84 | 1012.8 |
| 20260509110355 | 10 | 275 | 0.0 | 0.0 | 0.00 | 0.00 | 0.00 | 84 | 1012.9 |
| 20260509110143 | 10 | 275 | 0.0 | 0.0 | 0.00 | 0.00 | 0.00 | 84 | 1012.8 |
| 20260509105935 | 10 | 275 | 0.0 | 0.0 | 0.00 | 0.00 | 0.00 | 84 | 1012.8 |
| 20260509105726 | 10 | 275 | 0.0 | 0.0 | 0.00 | 0.00 | 0.00 | 84 | 1012.8 |
| 20260509105519 | 10 | 275 | 0.0 | 0.0 | 0.00 | 0.00 | 0.00 | 84 | 1012.9 |
| 20260509105315 | 10 | 275 | 0.0 | 0.0 | 0.00 | 0.00 | 0.00 | 84 | 1012.9 |
| 20260509105108 | 10 | 275 | 0.0 | 0.0 | 0.00 | 0.00 | 0.00 | 84 | 1012.9 |
| 20260509104855 | 10 | 275 | 0.0 | 0.0 | 0.00 | 0.00 | 0.00 | 84 | 1012.8 |
| 20260509104643 | 10 | 275 | 0.0 | 0.0 | 0.00 | 0.00 | 0.00 | 84 | 1012.8 |
| 20260509104430 | 10 | 275 | 0.0 | 0.0 | 0.00 | 0.00 | 0.00 | 84 | 1012.8 |
| 20260509104221 | 10 | 275 | 0.0 | 0.0 | 0.00 | 0.00 | 0.00 | 84 | 1012.8 |
| 20260509104012 | 10 | 275 | 0.0 | 0.0 | 0.00 | 0.00 | 0.00 | 84 | 1012.8 |
| 20260509103805 | 10 | 275 | 0.0 | 0.0 | 0.00 | 0.00 | 0.00 | 84 | 1012.8 |
| 20260509103412 | 10 | 275 | 0.0 | 0.0 | 0.00 | 0.00 | 0.00 | 84 | 1012.8 |
| 20260509103159 | 10 | 275 | 0.0 | 0.0 | 0.00 | 0.00 | 0.00 | 84 | 1012.8 |
| 20260509102956 | 10 | 275 | 0.0 | 0.0 | 0.00 | 0.00 | 0.00 | 84 | 1012.8 |
| 20260509102745 | 10 | 275 | 0.0 | 0.0 | 0.00 | 0.00 | 0.00 | 84 | 1012.8 |
| 20260509102532 | 10 | 275 | 0.0 | 0.0 | 0.00 | 0.00 | 0.00 | 84 | 1012.8 |
| 20260509102325 | 10 | 275 | 0.0 | 0.0 | 0.00 | 0.00 | 0.00 | 84 | 1012.8 |
| 20260509102117 | 10 | 275 | 0.0 | 0.0 | 0.00 | 0.00 | 0.00 | 84 | 1012.8 |
| 20260509101912 | 10 | 275 | 0.0 | 0.0 | 0.00 | 0.00 | 0.00 | 83 | 1012.9 |
| 20260509101517 | 10 | 275 | 0.0 | 0.0 | 0.00 | 0.00 | 0.00 | 83 | 1013.0 |
| 20260509101311 | 10 | 275 | 0.0 | 0.0 | 0.00 | 0.00 | 0.00 | 83 | 1013.0 |
| 20260509101109 | 10 | 275 | 0.0 | 0.0 | 0.00 | 0.00 | 0.00 | 83 | 1013.0 |
| 20260509100902 | 10 | 275 | 0.0 | 0.0 | 0.00 | 0.00 | 0.00 | 83 | 1013.0 |
| 20260509100701 | 10 | 275 | 0.0 | 0.0 | 0.00 | 0.00 | 0.00 | 83 | 1013.0 |
| 20260509100305 | 10 | 275 | 0.0 | 0.0 | 0.00 | 0.00 | 0.00 | 83 | 1013.0 |
| 20260509100053 | 10 | 275 | 0.0 | 0.0 | 0.00 | 0.00 | 0.00 | 83 | 1013.0 |
| 20260509095851 | 10 | 275 | 0.0 | 0.0 | 0.00 | 0.00 | 0.00 | 83 | 1013.0 |
| 20260509095454 | 10 | 275 | 0.0 | 0.0 | 0.00 | 0.00 | 0.00 | 83 | 1013.0 |
| 20260509095249 | 10 | 275 | 0.0 | 0.0 | 0.00 | 0.00 | 0.00 | 83 | 1013.0 |
| 20260509095037 | 10 | 275 | 0.0 | 0.0 | 0.00 | 0.00 | 0.00 | 83 | 1012.9 |
| 20260509094829 | 10 | 275 | 0.0 | 0.0 | 0.00 | 0.00 | 0.00 | 83 | 1013.0 |
| 20260509094624 | 10 | 275 | 0.0 | 0.0 | 0.00 | 0.00 | 0.00 | 83 | 1013.0 |
| 20260509094417 | 10 | 275 | 0.0 | 0.0 | 0.00 | 0.00 | 0.00 | 83 | 1013.0 |
| 20260509094213 | 10 | 275 | 0.0 | 0.0 | 0.00 | 0.00 | 0.00 | 83 | 1013.0 |
| 20260509094002 | 10 | 275 | 0.0 | 0.0 | 0.00 | 0.00 | 0.00 | 83 | 1013.0 |
| 20260509093755 | 10 | 275 | 0.0 | 0.0 | 0.00 | 0.00 | 0.00 | 83 | 1013.0 |
| 20260509093548 | 10 | 275 | 0.0 | 0.0 | 0.00 | 0.00 | 0.00 | 83 | 1013.1 |
| 20260509093341 | 10 | 275 | 0.0 | 0.0 | 0.00 | 0.00 | 0.00 | 83 | 1013.0 |
| 20260509093137 | 10 | 275 | 0.0 | 0.0 | 0.00 | 0.00 | 0.00 | 83 | 1013.1 |
| 20260509092929 | 10 | 275 | 0.0 | 0.0 | 0.00 | 0.00 | 0.00 | 83 | 1013.0 |
| 20260509092542 | 10 | 275 | 0.0 | 0.0 | 0.00 | 0.00 | 0.00 | 82 | 1013.1 |
| 20260509092337 | 10 | 275 | 0.0 | 0.0 | 0.00 | 0.00 | 0.00 | 82 | 1013.1 |
| 20260509092124 | 11 | 275 | 0.0 | 0.0 | 0.00 | 0.00 | 0.00 | 82 | 1013.1 |
| 20260509091919 | 10 | 275 | 0.0 | 0.0 | 0.00 | 0.00 | 0.00 | 82 | 1013.1 |
| 20260509091532 | 11 | 275 | 0.0 | 0.0 | 0.00 | 0.00 | 0.00 | 82 | 1013.1 |
| 20260509091135 | 11 | 275 | 0.0 | 0.0 | 0.00 | 0.00 | 0.00 | 82 | 1013.0 |
| 20260509090930 | 11 | 275 | 0.0 | 0.0 | 0.00 | 0.00 | 0.00 | 82 | 1013.0 |
| 20260509090727 | 11 | 275 | 0.0 | 0.0 | 0.00 | 0.00 | 0.00 | 82 | 1013.0 |
| 20260509090525 | 11 | 275 | 0.0 | 0.0 | 0.00 | 0.00 | 0.00 | 82 | 1013.0 |
| 20260509090315 | 11 | 275 | 0.0 | 0.0 | 0.00 | 0.00 | 0.00 | 82 | 1013.0 |
| 20260509090113 | 11 | 275 | 0.0 | 0.0 | 0.00 | 0.00 | 0.00 | 82 | 1013.0 |
| 20260509085903 | 11 | 275 | 0.0 | 0.0 | 0.00 | 0.00 | 0.00 | 82 | 1013.0 |
| 20260509085657 | 11 | 275 | 0.0 | 0.0 | 0.00 | 0.00 | 0.00 | 82 | 1013.0 |
| 20260509085454 | 11 | 275 | 0.0 | 0.0 | 0.00 | 0.00 | 0.00 | 82 | 1013.0 |
| 20260509085241 | 11 | 275 | 0.0 | 0.0 | 0.00 | 0.00 | 0.00 | 82 | 1012.9 |
| 20260509085032 | 11 | 275 | 0.0 | 0.0 | 0.00 | 0.00 | 0.00 | 82 | 1013.0 |
| 20260509084823 | 11 | 275 | 0.0 | 0.0 | 0.00 | 0.00 | 0.00 | 82 | 1013.0 |
| 20260509084612 | 11 | 275 | 0.0 | 0.0 | 0.00 | 0.00 | 0.00 | 82 | 1013.0 |
| 20260509084407 | 11 | 275 | 0.0 | 0.0 | 0.00 | 0.00 | 0.00 | 81 | 1013.0 |
| 20260509084158 | 11 | 275 | 0.0 | 0.0 | 0.00 | 0.00 | 0.00 | 81 | 1013.0 |
| 20260509083955 | 11 | 275 | 0.0 | 0.0 | 0.00 | 0.00 | 0.00 | 81 | 1013.0 |
| 20260509083744 | 11 | 275 | 0.0 | 0.0 | 0.00 | 0.00 | 0.00 | 81 | 1013.0 |
| 20260509083533 | 11 | 275 | 0.0 | 0.0 | 0.00 | 0.00 | 0.00 | 81 | 1013.0 |
| 20260509083328 | 11 | 275 | 0.0 | 0.0 | 0.00 | 0.00 | 0.00 | 81 | 1013.0 |
| 20260509083124 | 11 | 275 | 0.0 | 0.0 | 0.00 | 0.00 | 0.00 | 81 | 1013.1 |
| 20260509082914 | 11 | 275 | 0.0 | 0.0 | 0.00 | 0.00 | 0.00 | 81 | 1013.1 |
| 20260509082703 | 11 | 275 | 0.0 | 0.0 | 0.00 | 0.00 | 0.00 | 81 | 1013.1 |
| 20260509082450 | 11 | 275 | 0.0 | 0.0 | 0.00 | 0.00 | 0.00 | 81 | 1013.1 |
| 20260509082248 | 11 | 275 | 0.0 | 0.0 | 0.00 | 0.00 | 0.00 | 81 | 1013.2 |
| 20260509082036 | 11 | 275 | 0.0 | 0.0 | 0.00 | 0.00 | 0.00 | 81 | 1013.1 |
| 20260509081823 | 11 | 275 | 0.0 | 0.0 | 0.00 | 0.00 | 0.00 | 81 | 1013.2 |
| 20260509081431 | 11 | 275 | 0.0 | 0.0 | 0.00 | 0.00 | 0.00 | 81 | 1013.2 |
| 20260509081039 | 11 | 275 | 0.0 | 0.0 | 0.00 | 0.00 | 0.00 | 81 | 1013.2 |
| 20260509080643 | 11 | 275 | 0.0 | 0.0 | 0.00 | 0.00 | 0.00 | 81 | 1013.2 |
| 20260509080253 | 11 | 275 | 0.0 | 0.0 | 0.00 | 0.00 | 0.00 | 81 | 1013.3 |
| 20260509080041 | 11 | 275 | 0.0 | 0.0 | 0.00 | 0.00 | 0.00 | 80 | 1013.3 |
| 20260509075839 | 11 | 275 | 0.0 | 0.0 | 0.00 | 0.00 | 0.00 | 81 | 1013.3 |
| 20260509075630 | 11 | 275 | 0.0 | 0.0 | 0.00 | 0.00 | 0.00 | 81 | 1013.3 |
| 20260509075235 | 11 | 275 | 0.0 | 0.0 | 0.00 | 0.00 | 0.00 | 80 | 1013.3 |
| 20260509075031 | 11 | 275 | 0.0 | 0.0 | 0.00 | 0.00 | 0.00 | 80 | 1013.4 |
| 20260509074634 | 11 | 275 | 0.0 | 0.0 | 0.00 | 0.00 | 0.00 | 80 | 1013.4 |
| 20260509074424 | 11 | 275 | 0.0 | 0.0 | 0.00 | 0.00 | 0.00 | 80 | 1013.4 |
| 20260509074034 | 11 | 275 | 0.0 | 0.0 | 0.00 | 0.00 | 0.00 | 80 | 1013.4 |
| 20260509073825 | 11 | 275 | 0.0 | 0.0 | 0.00 | 0.00 | 0.00 | 80 | 1013.4 |
| 20260509073620 | 11 | 275 | 0.0 | 0.0 | 0.00 | 0.00 | 0.00 | 80 | 1013.4 |
| 20260509073415 | 11 | 275 | 0.0 | 0.0 | 0.00 | 0.00 | 0.00 | 80 | 1013.4 |
| 20260509073211 | 11 | 275 | 0.0 | 0.0 | 0.00 | 0.00 | 0.00 | 79 | 1013.4 |
| 20260509073009 | 11 | 275 | 0.0 | 0.0 | 0.00 | 0.00 | 0.00 | 79 | 1013.4 |
| 20260509072757 | 11 | 275 | 0.0 | 0.0 | 0.00 | 0.00 | 0.00 | 80 | 1013.4 |
| 20260509072404 | 11 | 275 | 0.0 | 0.0 | 0.00 | 0.00 | 0.00 | 79 | 1013.4 |
| 20260509072201 | 11 | 275 | 0.0 | 0.0 | 0.00 | 0.00 | 0.00 | 79 | 1013.3 |
| 20260509071956 | 11 | 275 | 0.0 | 0.0 | 0.00 | 0.00 | 0.00 | 79 | 1013.3 |
| 20260509071749 | 11 | 275 | 0.0 | 0.0 | 0.00 | 0.00 | 0.00 | 79 | 1013.4 |
| 20260509071358 | 11 | 275 | 0.0 | 0.0 | 0.00 | 0.00 | 0.00 | 79 | 1013.2 |
| 20260509071153 | 11 | 275 | 0.0 | 0.0 | 0.00 | 0.00 | 0.00 | 79 | 1013.3 |
| 20260509070942 | 11 | 275 | 0.0 | 0.0 | 0.00 | 0.00 | 0.00 | 79 | 1013.3 |
| 20260509070730 | 11 | 275 | 0.0 | 0.0 | 0.00 | 0.00 | 0.00 | 79 | 1013.3 |
| 20260509070526 | 12 | 275 | 0.0 | 0.0 | 0.00 | 0.00 | 0.00 | 79 | 1013.3 |
| 20260509070322 | 12 | 275 | 0.0 | 0.0 | 0.00 | 0.00 | 0.00 | 79 | 1013.3 |
| 20260509070116 | 12 | 275 | 0.0 | 0.0 | 0.00 | 0.00 | 0.00 | 79 | 1013.3 |
| 20260509065911 | 12 | 275 | 0.0 | 0.0 | 0.00 | 0.00 | 0.00 | 79 | 1013.4 |
| 20260509065336 | 12 | 275 | 0.0 | 0.0 | 0.00 | 0.00 | 0.00 | 79 | 1013.5 |
| 20260509065129 | 12 | 275 | 0.0 | 0.0 | 0.00 | 0.00 | 0.00 | 79 | 1013.5 |
| 20260509064926 | 12 | 275 | 0.0 | 0.0 | 0.00 | 0.00 | 0.00 | 79 | 1013.4 |
| 20260509064716 | 12 | 275 | 0.0 | 0.0 | 0.00 | 0.00 | 0.00 | 79 | 1013.5 |
| 20260509064507 | 12 | 275 | 0.0 | 0.0 | 0.00 | 0.00 | 0.00 | 78 | 1013.4 |
| 20260509064301 | 12 | 275 | 0.0 | 0.0 | 0.00 | 0.00 | 0.00 | 78 | 1013.5 |
| 20260509063905 | 12 | 275 | 0.0 | 0.0 | 0.00 | 0.00 | 0.00 | 78 | 1013.5 |
| 20260509063655 | 12 | 275 | 0.0 | 0.0 | 0.00 | 0.00 | 0.00 | 78 | 1013.4 |
| 20260509063442 | 12 | 275 | 0.0 | 0.0 | 0.00 | 0.00 | 0.00 | 78 | 1013.4 |
| 20260509063234 | 12 | 275 | 0.0 | 0.0 | 0.00 | 0.00 | 0.00 | 78 | 1013.5 |
| 20260509063024 | 12 | 275 | 0.0 | 0.0 | 0.00 | 0.00 | 0.00 | 78 | 1013.4 |
| 20260509062815 | 12 | 275 | 0.0 | 0.0 | 0.00 | 0.00 | 0.00 | 78 | 1013.4 |
| 20260509062613 | 12 | 275 | 0.0 | 0.0 | 0.00 | 0.00 | 0.00 | 77 | 1013.4 |
| 20260509062406 | 12 | 275 | 0.0 | 0.0 | 0.00 | 0.00 | 0.00 | 77 | 1013.4 |
| 20260509062202 | 12 | 275 | 0.0 | 0.0 | 0.00 | 0.00 | 0.00 | 77 | 1013.4 |
| 20260509062000 | 12 | 275 | 0.0 | 0.0 | 0.00 | 0.00 | 0.00 | 77 | 1013.5 |
| 20260509061602 | 12 | 275 | 0.0 | 0.0 | 0.00 | 0.00 | 0.00 | 77 | 1013.4 |
| 20260509061211 | 12 | 275 | 0.0 | 0.0 | 0.00 | 0.00 | 0.00 | 77 | 1013.4 |
| 20260509061007 | 12 | 275 | 0.0 | 0.0 | 0.00 | 0.00 | 0.00 | 77 | 1013.4 |
| 20260509060804 | 12 | 275 | 0.0 | 0.0 | 0.00 | 0.00 | 0.00 | 77 | 1013.4 |
| 20260509060558 | 12 | 275 | 0.0 | 0.0 | 0.00 | 0.00 | 0.00 | 77 | 1013.3 |
| 20260509060345 | 12 | 275 | 0.0 | 0.0 | 0.00 | 0.00 | 0.00 | 77 | 1013.4 |
| 20260509060144 | 12 | 275 | 0.0 | 0.0 | 0.00 | 0.00 | 0.00 | 76 | 1013.4 |
| 20260509055933 | 12 | 275 | 0.0 | 0.0 | 0.00 | 0.00 | 0.00 | 76 | 1013.4 |
| 20260509055723 | 12 | 275 | 0.0 | 0.0 | 0.00 | 0.00 | 0.00 | 76 | 1013.4 |
| 20260509055519 | 12 | 275 | 0.0 | 0.0 | 0.00 | 0.00 | 0.00 | 76 | 1013.4 |
| 20260509055125 | 12 | 275 | 0.0 | 0.0 | 0.00 | 0.00 | 0.00 | 76 | 1013.4 |
| 20260509054921 | 12 | 275 | 0.0 | 0.0 | 0.00 | 0.00 | 0.00 | 76 | 1013.4 |
| 20260509054711 | 13 | 275 | 0.0 | 0.0 | 0.00 | 0.00 | 0.00 | 76 | 1013.3 |
| 20260509054508 | 13 | 275 | 0.0 | 0.0 | 0.00 | 0.00 | 0.00 | 75 | 1013.3 |
| 20260509054255 | 13 | 275 | 0.0 | 0.0 | 0.00 | 0.00 | 0.00 | 75 | 1013.3 |
| 20260509054043 | 13 | 275 | 0.0 | 0.0 | 0.00 | 0.00 | 0.00 | 75 | 1013.3 |
| 20260509053647 | 13 | 275 | 0.0 | 0.0 | 0.00 | 0.00 | 0.00 | 75 | 1013.4 |
| 20260509053444 | 13 | 275 | 0.0 | 0.0 | 0.00 | 0.00 | 0.00 | 75 | 1013.4 |
| 20260509053237 | 13 | 275 | 0.0 | 0.0 | 0.00 | 0.00 | 0.00 | 75 | 1013.4 |
| 20260509053026 | 13 | 275 | 0.0 | 0.0 | 0.00 | 0.00 | 0.00 | 75 | 1013.4 |
| 20260509052824 | 13 | 275 | 0.0 | 0.0 | 0.00 | 0.00 | 0.00 | 74 | 1013.4 |
| 20260509052432 | 13 | 275 | 0.0 | 0.0 | 0.00 | 0.00 | 0.00 | 74 | 1013.4 |
| 20260509052225 | 13 | 275 | 0.0 | 0.0 | 0.00 | 0.00 | 0.00 | 74 | 1013.4 |
| 20260509051837 | 13 | 275 | 0.0 | 0.0 | 0.00 | 0.00 | 0.00 | 74 | 1013.3 |
| 20260509051446 | 13 | 275 | 0.0 | 0.0 | 0.00 | 0.00 | 0.00 | 74 | 1013.3 |
| 20260509051237 | 13 | 275 | 0.0 | 0.0 | 0.00 | 0.00 | 0.00 | 73 | 1013.3 |
| 20260509051025 | 13 | 275 | 0.0 | 0.0 | 0.00 | 0.00 | 0.00 | 73 | 1013.3 |
| 20260509050307 | 13 | 275 | 0.0 | 0.0 | 0.00 | 0.00 | 0.00 | 73 | 1013.2 |
| 20260509050054 | 13 | 275 | 0.0 | 0.0 | 0.00 | 0.00 | 0.00 | 72 | 1013.2 |
| 20260509045841 | 13 | 275 | 0.0 | 0.0 | 0.00 | 0.00 | 0.00 | 72 | 1013.2 |
| 20260509045452 | 14 | 275 | 0.0 | 0.0 | 0.00 | 0.00 | 0.00 | 72 | 1013.1 |
| 20260509044919 | 14 | 275 | 0.0 | 0.0 | 0.00 | 0.00 | 0.00 | 71 | 1013.0 |
| 20260509044713 | 14 | 275 | 0.0 | 0.0 | 0.00 | 0.00 | 0.00 | 71 | 1013.0 |
| 20260509044506 | 14 | 275 | 0.0 | 0.0 | 0.00 | 0.00 | 0.00 | 71 | 1013.0 |
| 20260509044255 | 14 | 275 | 0.0 | 0.0 | 0.00 | 0.00 | 0.00 | 71 | 1013.0 |
| 20260509044051 | 14 | 275 | 0.0 | 0.0 | 0.00 | 0.00 | 0.00 | 70 | 1013.0 |
| 20260509043843 | 14 | 275 | 0.0 | 0.0 | 0.00 | 0.00 | 0.00 | 70 | 1013.0 |
| 20260509043635 | 14 | 275 | 0.0 | 0.0 | 0.00 | 0.00 | 0.00 | 70 | 1013.0 |
| 20260509043422 | 15 | 275 | 0.0 | 0.0 | 0.00 | 0.00 | 0.00 | 70 | 1013.0 |
| 20260509043032 | 15 | 275 | 0.0 | 0.0 | 0.00 | 0.00 | 0.00 | 69 | 1012.9 |
| 20260509042829 | 15 | 275 | 0.0 | 0.0 | 0.00 | 0.00 | 0.00 | 69 | 1012.9 |
| 20260509042626 | 15 | 275 | 0.0 | 0.0 | 0.00 | 0.00 | 0.00 | 69 | 1012.9 |
| 20260509042238 | 15 | 275 | 0.0 | 0.0 | 0.00 | 0.00 | 0.00 | 69 | 1012.9 |
| 20260509042026 | 15 | 275 | 0.0 | 0.0 | 0.00 | 0.00 | 0.00 | 69 | 1012.8 |
| 20260509041824 | 15 | 275 | 0.0 | 0.0 | 0.00 | 0.00 | 0.00 | 68 | 1012.8 |
| 20260509041618 | 15 | 275 | 0.0 | 0.0 | 0.00 | 0.00 | 0.00 | 68 | 1012.8 |
| 20260509041416 | 15 | 275 | 0.0 | 0.0 | 0.00 | 0.00 | 0.00 | 67 | 1012.8 |
| 20260509041207 | 15 | 275 | 0.0 | 0.0 | 0.00 | 0.00 | 0.00 | 67 | 1012.8 |
| 20260509040959 | 15 | 275 | 0.0 | 0.0 | 0.00 | 0.00 | 0.00 | 66 | 1012.8 |
| 20260509040755 | 15 | 275 | 0.0 | 0.0 | 0.00 | 0.00 | 0.00 | 66 | 1012.8 |
| 20260509040547 | 16 | 275 | 0.0 | 0.0 | 0.00 | 0.00 | 0.00 | 66 | 1012.8 |
| 20260509040343 | 16 | 275 | 0.0 | 0.0 | 0.00 | 0.00 | 0.00 | 66 | 1012.8 |
| 20260509040139 | 16 | 275 | 0.0 | 0.0 | 0.00 | 0.00 | 0.00 | 65 | 1012.8 |
| 20260509035934 | 16 | 275 | 0.0 | 0.0 | 0.00 | 0.00 | 0.00 | 65 | 1012.8 |
| 20260509035543 | 16 | 275 | 0.0 | 0.0 | 0.00 | 0.00 | 0.00 | 64 | 1012.7 |
| 20260509035341 | 16 | 275 | 0.0 | 0.0 | 0.00 | 0.00 | 0.00 | 64 | 1012.7 |
| 20260509035137 | 16 | 275 | 0.0 | 0.0 | 0.00 | 0.00 | 0.00 | 64 | 1012.7 |
| 20260509034744 | 16 | 275 | 0.0 | 0.0 | 0.00 | 0.00 | 0.00 | 64 | 1012.7 |
| 20260509034540 | 16 | 275 | 0.0 | 0.0 | 0.00 | 0.00 | 0.00 | 63 | 1012.7 |
| 20260509034332 | 16 | 275 | 0.0 | 0.0 | 0.00 | 0.00 | 0.00 | 63 | 1012.6 |
| 20260509034123 | 17 | 275 | 0.0 | 0.0 | 0.00 | 0.00 | 0.00 | 62 | 1012.6 |
| 20260509033911 | 17 | 275 | 0.0 | 0.0 | 0.00 | 0.00 | 0.00 | 63 | 1012.5 |
| 20260509033702 | 17 | 275 | 0.0 | 0.0 | 0.00 | 0.00 | 0.00 | 62 | 1012.6 |
| 20260509032939 | 17 | 275 | 0.0 | 0.0 | 0.00 | 0.00 | 0.00 | 62 | 1012.5 |
| 20260509032543 | 17 | 275 | 0.0 | 0.0 | 0.00 | 0.00 | 0.00 | 61 | 1012.6 |
| 20260509032338 | 17 | 275 | 0.0 | 0.0 | 0.00 | 0.00 | 0.00 | 61 | 1012.6 |
| 20260509032125 | 18 | 275 | 0.0 | 0.0 | 0.00 | 0.00 | 0.00 | 61 | 1012.5 |
| 20260509031919 | 18 | 275 | 0.0 | 0.0 | 0.00 | 0.00 | 0.00 | 61 | 1012.6 |
| 20260509031714 | 18 | 275 | 0.0 | 0.0 | 0.00 | 0.00 | 0.00 | 60 | 1012.6 |
| 20260509031503 | 18 | 275 | 0.0 | 0.0 | 0.00 | 0.00 | 0.00 | 60 | 1012.6 |
| 20260509031301 | 18 | 275 | 0.0 | 0.0 | 0.00 | 0.00 | 0.00 | 60 | 1012.6 |
| 20260509031054 | 18 | 275 | 0.0 | 0.0 | 0.00 | 0.00 | 0.00 | 60 | 1012.5 |
| 20260509030842 | 18 | 275 | 0.0 | 0.0 | 0.00 | 0.00 | 0.00 | 59 | 1012.4 |
| 20260509030636 | 18 | 275 | 0.0 | 0.0 | 0.00 | 0.00 | 0.00 | 59 | 1012.4 |
| 20260509030428 | 18 | 275 | 0.0 | 0.0 | 0.00 | 0.00 | 0.00 | 59 | 1012.4 |
| 20260509025848 | 19 | 275 | 0.0 | 0.0 | 0.00 | 0.00 | 0.00 | 58 | 1012.3 |
| 20260509025639 | 19 | 275 | 0.0 | 0.0 | 0.00 | 0.00 | 0.00 | 58 | 1012.4 |
| 20260509025427 | 19 | 275 | 0.0 | 0.0 | 0.00 | 0.00 | 0.00 | 58 | 1012.4 |
| 20260509025217 | 19 | 275 | 0.0 | 0.0 | 0.00 | 0.00 | 0.00 | 58 | 1012.3 |
| 20260509025014 | 20 | 275 | 0.0 | 0.0 | 0.00 | 0.00 | 0.00 | 58 | 1012.4 |
| 20260509024811 | 20 | 275 | 0.0 | 0.0 | 0.00 | 0.00 | 0.00 | 57 | 1012.3 |
| 20260509024559 | 20 | 275 | 0.0 | 0.0 | 0.00 | 0.00 | 0.00 | 57 | 1012.3 |
| 20260509024354 | 20 | 275 | 0.0 | 0.0 | 0.00 | 0.00 | 0.00 | 56 | 1012.2 |
| 20260509024141 | 20 | 275 | 0.0 | 0.0 | 0.00 | 0.00 | 0.00 | 56 | 1012.3 |
| 20260509023929 | 20 | 275 | 0.0 | 0.0 | 0.00 | 0.00 | 0.00 | 56 | 1012.3 |
| 20260509023723 | 20 | 275 | 0.0 | 0.0 | 0.00 | 0.00 | 0.00 | 56 | 1012.2 |
| 20260509023515 | 20 | 275 | 0.0 | 0.0 | 0.00 | 0.00 | 0.00 | 55 | 1012.3 |
| 20260509023313 | 20 | 275 | 0.0 | 0.0 | 0.00 | 0.00 | 0.00 | 55 | 1012.2 |
| 20260509023103 | 21 | 275 | 0.0 | 0.0 | 0.00 | 0.00 | 0.00 | 55 | 1012.2 |
| 20260509022852 | 21 | 275 | 0.0 | 0.0 | 0.00 | 0.00 | 0.00 | 55 | 1012.1 |
| 20260509022504 | 21 | 275 | 0.0 | 0.0 | 0.00 | 0.00 | 0.00 | 53 | 1012.1 |
| 20260509022113 | 21 | 275 | 0.0 | 0.0 | 0.00 | 0.00 | 0.00 | 52 | 1012.1 |
| 20260509021719 | 22 | 275 | 0.0 | 0.0 | 0.00 | 0.00 | 0.00 | 51 | 1012.1 |
| 20260509021511 | 22 | 275 | 0.0 | 0.0 | 0.00 | 0.00 | 0.00 | 52 | 1012.2 |
| 20260509021301 | 22 | 275 | 0.0 | 0.0 | 0.00 | 0.00 | 0.00 | 51 | 1012.1 |
| 20260509021051 | 22 | 275 | 0.0 | 0.0 | 0.00 | 0.00 | 0.00 | 51 | 1012.1 |
| 20260509020847 | 22 | 275 | 0.0 | 0.0 | 0.00 | 0.00 | 0.00 | 50 | 1012.1 |
| 20260509020643 | 22 | 275 | 0.0 | 1.6 | 0.00 | 0.00 | 0.00 | 50 | 1012.1 |
| 20260509020433 | 22 | 275 | 0.0 | 0.0 | 0.00 | 0.00 | 0.00 | 49 | 1012.1 |
| 20260509020044 | 23 | 275 | 0.0 | 0.0 | 0.00 | 0.00 | 0.00 | 48 | 1012.1 |
| 20260509015836 | 23 | 275 | 0.0 | 0.0 | 0.00 | 0.00 | 0.00 | 47 | 1012.1 |
| 20260509015629 | 23 | 275 | 0.0 | 0.0 | 0.00 | 0.00 | 0.00 | 47 | 1012.0 |
| 20260509015420 | 23 | 275 | 0.0 | 0.0 | 0.00 | 0.00 | 0.00 | 45 | 1012.0 |
| 20260509015216 | 23 | 275 | 0.0 | 0.0 | 0.00 | 0.00 | 0.00 | 45 | 1012.1 |
| 20260509014819 | 23 | 274 | 0.0 | 3.2 | 0.00 | 0.00 | 0.00 | 42 | 1012.1 |
| 20260509014613 | 23 | 274 | 0.0 | 3.2 | 0.00 | 0.00 | 0.00 | 44 | 1012.1 |
| 20260509014220 | 23 | 274 | 0.0 | 0.0 | 0.00 | 0.00 | 0.00 | 45 | 1012.2 |
| 20260509014015 | 24 | 274 | 0.0 | 0.0 | 0.00 | 0.00 | 0.00 | 42 | 1012.2 |
| 20260509013809 | 24 | 274 | 0.0 | 6.4 | 0.00 | 0.00 | 0.00 | 40 | 1012.1 |
| 20260509013557 | 24 | 274 | 0.0 | 6.4 | 0.00 | 0.00 | 0.00 | 40 | 1012.2 |
| 20260509013344 | 24 | 274 | 0.0 | 4.8 | 0.00 | 0.00 | 0.00 | 40 | 1012.2 |
| 20260509013131 | 24 | 274 | 0.0 | 4.8 | 0.00 | 0.00 | 0.00 | 40 | 1012.1 |
| 20260509012924 | 24 | 273 | 0.0 | 4.8 | 0.00 | 0.00 | 0.00 | 41 | 1012.2 |
| 20260509012534 | 25 | 304 | 0.0 | 0.0 | 0.00 | 0.00 | 0.00 | 43 | 1012.1 |
| 20260509012329 | 25 | 304 | 0.0 | 9.7 | 0.00 | 0.00 | 0.00 | 41 | 1012.1 |
| 20260509012120 | 25 | 304 | 0.0 | 9.7 | 0.00 | 0.00 | 0.00 | 39 | 1012.1 |
| 20260509011725 | 25 | 207 | 0.0 | 6.4 | 0.00 | 0.00 | 0.00 | 39 | 1012.1 |
| 20260509011332 | 25 | 291 | 0.0 | 6.4 | 0.00 | 0.00 | 0.00 | 39 | 1012.1 |
| 20260509010938 | 25 | 200 | 0.0 | 6.4 | 0.00 | 0.00 | 0.00 | 39 | 1012.1 |
| 20260509010730 | 25 | 263 | 0.0 | 0.0 | 0.00 | 0.00 | 0.00 | 40 | 1012.1 |
| 20260509010526 | 25 | 263 | 1.6 | 8.0 | 0.00 | 0.00 | 0.00 | 39 | 1012.1 |
| 20260509010319 | 26 | 263 | 1.6 | 8.0 | 0.00 | 0.00 | 0.00 | 40 | 1012.1 |
| 20260509005922 | 26 | 197 | 0.0 | 6.4 | 0.00 | 0.00 | 0.00 | 40 | 1012.1 |
| 20260509005719 | 26 | 220 | 0.0 | 6.4 | 0.00 | 0.00 | 0.00 | 40 | 1012.1 |
| 20260509005329 | 25 | 219 | 0.0 | 6.4 | 0.00 | 0.00 | 0.00 | 41 | 1012.2 |
| 20260509005118 | 25 | 218 | 0.0 | 6.4 | 0.00 | 0.00 | 0.00 | 41 | 1012.2 |
| 20260509004913 | 25 | 217 | 1.6 | 8.0 | 0.00 | 0.00 | 0.00 | 40 | 1012.3 |
| 20260509004525 | 25 | 213 | 1.6 | 8.0 | 0.00 | 0.00 | 0.00 | 40 | 1012.4 |
| 20260509004322 | 25 | 169 | 1.6 | 8.0 | 0.00 | 0.00 | 0.00 | 40 | 1012.3 |
| 20260509004114 | 25 | 261 | 1.6 | 8.0 | 0.00 | 0.00 | 0.00 | 40 | 1012.4 |
| 20260509003909 | 25 | 228 | 1.6 | 8.0 | 0.00 | 0.00 | 0.00 | 41 | 1012.3 |
| 20260509003702 | 25 | 179 | 1.6 | 8.0 | 0.00 | 0.00 | 0.00 | 40 | 1012.3 |
| 20260509003452 | 25 | 207 | 0.0 | 8.0 | 0.00 | 0.00 | 0.00 | 39 | 1012.3 |
| 20260509003240 | 26 | 231 | 0.0 | 8.0 | 0.00 | 0.00 | 0.00 | 39 | 1012.4 |
| 20260509003038 | 26 | 253 | 0.0 | 8.0 | 0.00 | 0.00 | 0.00 | 40 | 1012.3 |
| 20260509002829 | 26 | 255 | 1.6 | 9.7 | 0.00 | 0.00 | 0.00 | 41 | 1012.3 |
| 20260509002619 | 26 | 253 | 1.6 | 9.7 | 0.00 | 0.00 | 0.00 | 41 | 1012.3 |
| 20260509002413 | 26 | 255 | 1.6 | 9.7 | 0.00 | 0.00 | 0.00 | 40 | 1012.3 |
| 20260509002026 | 26 | 258 | 1.6 | 9.7 | 0.00 | 0.00 | 0.00 | 41 | 1012.4 |
| 20260509001640 | 26 | 221 | 1.6 | 9.7 | 0.00 | 0.00 | 0.00 | 41 | 1012.3 |
| 20260509001427 | 26 | 277 | 1.6 | 9.7 | 0.00 | 0.00 | 0.00 | 41 | 1012.4 |
| 20260509001218 | 26 | 298 | 1.6 | 9.7 | 0.00 | 0.00 | 0.00 | 39 | 1012.4 |
| 20260509001011 | 26 | 289 | 1.6 | 9.7 | 0.00 | 0.00 | 0.00 | 41 | 1012.4 |
| 20260509000800 | 26 | 314 | 0.0 | 9.7 | 0.00 | 0.00 | 0.00 | 40 | 1012.4 |
| 20260509000556 | 26 | 242 | 0.0 | 9.7 | 0.00 | 0.00 | 0.00 | 41 | 1012.4 |
| 20260509000355 | 26 | 240 | 1.6 | 9.7 | 0.00 | 0.00 | 0.00 | 41 | 1012.5 |
| 20260509000143 | 26 | 284 | 1.6 | 9.7 | 0.00 | 0.00 | 0.00 | 40 | 1012.4 |